Regional Weather Roundup
Issued by NWS Cleveland, OH

Home | Current Version | Previous Version | Text Only | Print | Product List | Glossary On
Versions: 1 2 3 4 5 6 7 8 9 10 11 12 13 14 15 16 17 18 19 20 21 22 23 24 25 26 27 28 29 30 31 32 33 34 35 36 37 38 39 40 41 42 43 44 45 46 47 48 49 50
000
ASUS41 KCLE 190812
RWRCLE
OHIO REGIONAL WEATHER ROUNDUP
NATIONAL WEATHER SERVICE WILMINGTON, OH
300 AM EST FRI JAN 19 2018

NOTE: "FAIR" INDICATES FEW OR NO CLOUDS BELOW 12,000 FEET WITH NO
SIGNIFICANT WEATHER AND/OR OBSTRUCTIONS TO VISIBILITY.

OHZ001>008-015>018-024>027-034-035-043-044-190900-
   NORTHWEST OHIO

CITY           SKY/WX    TMP DP  RH WIND       PRES   REMARKS
DEFIANCE       FAIR      24  13  62 SW12G22   30.02F WCI  13
FINDLAY        FAIR      26  12  55 SW13      30.04S WCI  15
TOLEDO EXPRESS FAIR      24  15  68 SW16      30.00F WCI  11
TOLEDO EXEC    FAIR      23  13  65 SW13      30.02F WCI  11
LIMA           FAIR      24  13  62 SW15      30.06R WCI  11
$$

OHZ009>014-019>023-028>033-038-089-190900-
   NORTHEAST OHIO

CITY           SKY/WX    TMP DP  RH WIND       PRES   REMARKS
CLE-HOPKINS    FAIR      28  13  53 S15G24    30.06S WCI  16
CLE-LAKEFRONT  FAIR      28  12  51 S15G24    30.03S WCI  16
CUY CO. ARPT   NOT AVBL
LORAIN-ELYRIA  FAIR      24   9  52 SW17      30.04S WCI  11
ASHTABULA      FAIR      24  12  60 S9        30.02S WCI  14
AKRON-CANTON   FAIR      20   9  62 SW16      30.06S WCI   6
WOOSTER        FAIR      21  10  62 SW10      30.07R WCI  10
MANSFIELD      FAIR      22  11  62 S15G26    30.05R WCI   9
YOUNGSTOWN     FAIR      22  10  60 SW13      30.04R WCI  10
$$

OHZ042-051>053-060>062-070>072-077>081-190900-
  SOUTHWEST OHIO

CITY           SKY/WX    TMP DP  RH WIND       PRES   REMARKS
CINC-COVINGTON FAIR      22  13  68 S10       30.16S WCI  11
CINC-LUNKEN    FAIR      24  13  62 SW10      30.21S WCI  14
HAMILTON       FAIR      23  13  65 SW7       30.19S WCI  15
DAYTON         FAIR      21  12  68 SW13      30.13R WCI   9
WRIGHT-PAT AFB FAIR      22   7  52 SW15      30.14R WCI   9
DAYTON GENERAL FAIR      22  12  65 SW8       30.14S WCI  12
WILMINGTON     FAIR      18  11  74 SW15      30.14R WCI   4
$$

OHZ036-037-039>041-045>050-054>059-063>069-073>076-082>088-190900-
  CENTRAL AND SOUTHEAST OHIO

CITY           SKY/WX    TMP DP  RH WIND       PRES   REMARKS
COLUMBUS       FAIR      20  10  65 S7        30.15R WCI  11
OSU AIRPORT    FAIR      18  11  74 S8        30.14R WCI   8
BOLTON FIELD   FAIR      19  11  69 SW13      30.14R WCI   7
RICKENBACK AFB FAIR      19  11  68 SW12      30.16R WCI   7
NEWARK         FAIR      20   9  62 S6        30.14R WCI  12
MARION         FAIR      18  10  71 S10       30.09R WCI   6
LANCASTER      FAIR      21  10  62 SW8       30.15R WCI  11
ZANESVILLE     FAIR      19   8  62 S7        30.15R WCI  10
NEW PHILLY     FAIR      23   9  55 S5        30.13R WCI  17
$$



USA.gov is the U.S. government's official web portal to all federal, state and local government web resources and services.